Location: Ocean City
(38.3360°N, 75.0850°W)
Time: 14:27:47
(UTC-05:00)

deb Explorer IX - Pass Details

Date: 23 November 2019
Orbit: 545 x 1105 km, 38.8° (Epoch: 05 December)

Event Time Altitude Azimuth Distance (km) Brightness Sun altitude
Exits shadow 04:29:37 36° 180° (S) 1,162 ? -27.3°
Drops below altitude 10° 04:33:08 10° 140° (SE) 2,110 ? -26.6°
Sets 04:35:26 0° 132° (SE) 2,944 ? -26.1°
